Weather History for Rome Ciampino, Italy

Change the Weather History Date:

Thursday, March 14, 2013

  Actual Average Record
Temperature  
Mean Temperature 47 °F -  
Max Temperature 55 °F 62 °F 68 °F (1999)
Min Temperature 39 °F 43 °F 35 °F (2006)
Degree Days  
Heating Degree Days 18    
Moisture  
Dew Point 38 °F    
Average Humidity 78    
Maximum Humidity 100    
Minimum Humidity 50    
Precipitation  
Precipitation 0.00 in 0.09 in - ()
Sea Level Pressure  
Sea Level Pressure 29.18 in    
Wind  
Wind Speed 6 mph ()    
Max Wind Speed 20 mph    
Max Gust Speed 33 mph    
Visibility 6.1 miles    
Events      
Averages and records for this station are not official NWS values.
T = Trace of Precipitation, MM = Missing Value Source: Averaged Metar Reports

Daily Weather History Graph

Daily Weather History Graph

Search for Another Location

Airport:

Trip Planner

Search our weather history database for the weather conditions in past years. The results will help you decide how hot, cold, wet, or windy it might be!

Date:

Astronomy

Mar. 14, 2013 Rise Set
Actual Time 6:23 AM CET 6:15 PM CET
Civil Twilight 5:55 AM CET 6:42 PM CET
Nautical Twilight 5:23 AM CET 7:15 PM CET
Astronomical Twilight 4:50 AM CET 7:48 PM CET
Moon 7:24 AM CET (3/14) 9:18 PM CET (3/14)
Length of Visible Light 12h 47m
Length of Day
11h 51m
Waxing Crescent, 7% of the Moon is Illuminated
Mar 14
Waxing Crescent
Mar 19
First Quarter
Mar 27
Full
Apr 3
Last Quarter
Apr 10
New

Hourly Weather History & Observations

Time (CET) Temp. Windchill Dew Point Humidity Pressure Visibility Wind Dir Wind Speed Gust Speed Precip Events Conditions
12:15 AM 41.0 °F - 39.2 °F 93% 29.27 in 6.2 mi ENE 2.3 mph - N/A   Scattered Clouds
12:45 AM 41.0 °F - 39.2 °F 93% 29.27 in 6.2 mi East 1.2 mph - N/A   Scattered Clouds
1:15 AM 39.2 °F 37.0 °F 37.4 °F 93% 29.27 in 6.2 mi East 3.5 mph - N/A   Scattered Clouds
1:45 AM 39.2 °F 35.9 °F 39.2 °F 100% 29.27 in 6.2 mi North 4.6 mph - N/A   Scattered Clouds
2:15 AM 39.2 °F - 37.4 °F 93% 29.27 in 6.2 mi ESE 2.3 mph - N/A   Partly Cloudy
2:45 AM 39.2 °F - 37.4 °F 93% 29.27 in 6.2 mi Calm Calm - N/A   Partly Cloudy
3:15 AM 39.2 °F - 37.4 °F 93% 29.27 in 6.2 mi Calm Calm - N/A   Partly Cloudy
3:45 AM 39.2 °F - 37.4 °F 93% 29.21 in 6.2 mi Calm Calm - N/A   Scattered Clouds
4:15 AM 39.2 °F 35.9 °F 37.4 °F 93% 29.18 in 6.2 mi NNE 4.6 mph - N/A   Scattered Clouds
4:45 AM 39.2 °F 35.9 °F 37.4 °F 93% 29.18 in 6.2 mi ENE 4.6 mph - N/A   Scattered Clouds
5:15 AM 39.2 °F - 39.2 °F 100% 29.18 in 6.2 mi North 1.2 mph - N/A   Scattered Clouds
5:45 AM 39.2 °F - 39.2 °F 100% 29.18 in 6.2 mi ENE 2.3 mph - N/A   Scattered Clouds
6:15 AM 39.2 °F - 39.2 °F 100% 29.15 in 6.2 mi NE 2.3 mph - N/A   Scattered Clouds
6:45 AM 39.2 °F - 39.2 °F 100% 29.15 in 6.2 mi NNE 1.2 mph - N/A   Scattered Clouds
7:15 AM 39.2 °F 35.9 °F 39.2 °F 100% 29.15 in 6.2 mi ENE 4.6 mph - N/A   Mostly Cloudy
7:45 AM 41.0 °F 38.0 °F 41.0 °F 100% 29.15 in 6.2 mi ENE 4.6 mph - N/A   Mostly Cloudy
8:15 AM 42.8 °F 41.1 °F 42.8 °F 100% 29.12 in 3.7 mi North 3.5 mph - N/A   Scattered Clouds
8:45 AM 44.6 °F 42.2 °F 44.6 °F 100% 29.12 in 3.1 mi NNE 4.6 mph - N/A   Scattered Clouds
9:15 AM 44.6 °F 43.1 °F 44.6 °F 100% 29.12 in 5.6 mi NNE 3.5 mph - N/A   Scattered Clouds
9:45 AM 46.4 °F 43.5 °F 46.4 °F 100% 29.12 in 5.6 mi NNE 5.8 mph - N/A   Scattered Clouds
10:15 AM 48.2 °F - 48.2 °F 100% 29.12 in 6.2 mi North 5.8 mph - N/A   Scattered Clouds
10:45 AM 48.2 °F - 44.6 °F 87% 29.12 in 6.2 mi North 10.4 mph - N/A   Scattered Clouds
11:15 AM 50.0 °F - 44.6 °F 82% 29.12 in 6.2 mi NNW 11.5 mph - N/A   Scattered Clouds
11:45 AM 50.0 °F - 42.8 °F 76% 29.12 in 6.2 mi NNW 11.5 mph - N/A   Scattered Clouds
12:15 PM 53.6 °F - 44.6 °F 72% 29.12 in 6.2 mi North 11.5 mph - N/A   Scattered Clouds
12:45 PM 53.6 °F - 42.8 °F 67% 29.12 in 6.2 mi North 13.8 mph - N/A   Scattered Clouds
1:15 PM 53.6 °F - 42.8 °F 67% 29.09 in 6.2 mi North 13.8 mph - N/A   Scattered Clouds
1:45 PM 55.4 °F - 42.8 °F 63% 29.09 in 6.2 mi NNW 13.8 mph - N/A   Scattered Clouds
2:15 PM 55.4 °F - 41.0 °F 58% 29.09 in 6.2 mi NW 17.3 mph - N/A   Scattered Clouds
2:45 PM 55.4 °F - 39.2 °F 54% 29.09 in 6.2 mi NNW 17.3 mph - N/A   Scattered Clouds
3:15 PM 55.4 °F - 39.2 °F 54% 29.09 in 6.2 mi NNW 17.3 mph - N/A   Scattered Clouds
3:45 PM 53.6 °F - 37.4 °F 54% 29.12 in 6.2 mi NNW 19.6 mph 33.4 mph N/A   Scattered Clouds
4:15 PM 53.6 °F - 35.6 °F 51% 29.12 in 6.2 mi NNW 18.4 mph - N/A   Scattered Clouds
4:45 PM 51.8 °F - 35.6 °F 54% 29.12 in 6.2 mi NW 16.1 mph - N/A   Scattered Clouds
5:15 PM 51.8 °F - 33.8 °F 50% 29.15 in 6.2 mi NNW 16.1 mph - N/A   Scattered Clouds
5:45 PM 50.0 °F - 33.8 °F 54% 29.15 in 6.2 mi NNW 16.1 mph - N/A   Scattered Clouds
6:15 PM 48.2 °F - 32.0 °F 54% 29.18 in 6.2 mi NNW 13.8 mph - N/A   Scattered Clouds
6:45 PM 48.2 °F - 32.0 °F 54% 29.18 in 6.2 mi NNW 15.0 mph - N/A   Scattered Clouds
7:15 PM 46.4 °F 40.7 °F 32.0 °F 57% 29.18 in 6.2 mi NNW 12.7 mph - N/A   Scattered Clouds
7:45 PM 46.4 °F 42.4 °F 33.8 °F 62% 29.21 in 6.2 mi NNW 8.1 mph - N/A   Scattered Clouds
8:15 PM 44.6 °F 40.2 °F 33.8 °F 66% 29.21 in 6.2 mi NNW 8.1 mph - N/A   Scattered Clouds
8:45 PM 44.6 °F 40.7 °F 33.8 °F 66% 29.21 in 6.2 mi NNW 6.9 mph - N/A   Scattered Clouds
9:15 PM 44.6 °F 40.2 °F 33.8 °F 66% 29.21 in 6.2 mi NNW 8.1 mph - N/A   Partly Cloudy
9:45 PM 42.8 °F - 33.8 °F 70% 29.24 in 6.2 mi NW 2.3 mph - N/A   Scattered Clouds
10:15 PM 42.8 °F 41.1 °F 33.8 °F 70% 29.24 in 6.2 mi NW 3.5 mph - N/A   Scattered Clouds
10:45 PM 42.8 °F - 33.8 °F 70% 29.27 in 6.2 mi Calm Calm - N/A   Scattered Clouds
11:15 PM 41.0 °F 39.0 °F 33.8 °F 76% 29.27 in 6.2 mi North 3.5 mph - N/A   Scattered Clouds
11:45 PM 41.0 °F - 32.0 °F 70% 29.27 in 6.2 mi North 2.3 mph - N/A   Scattered Clouds